SL-16 DEB, 22612

Orbit data source: Space-Track

SL-16 DEB, 22612 is space debris in LEO originally from a launch on Fri, 26 Mar 1993 UTC launched from the Tyuratam Missile And Space Complex (TTMTR). Debris objects in space refer to the collection of defunct objects orbiting the Earth. Examples of debris include non-operational satellites, rocket bodies, and fragments generated from explosions, collisions, or faulty payload assembly.

Loading next visibility...
Identifier
22612, 1993-016W
Orbit
LEO
Country
Flag of CISCIS
Related business
Manufacturer
Unknown
Mission
Spacecraft
Bus & Motor
Unknown
Mass
Unknown
Launch date (UTC)
1993-03-26 (33 years ago)
Launch vehicle
Unknown
Launch site
Tyuratam Missile And Space Complex (TTMTR)
Object type
Payload
Rocket body
Debris
Shape & HBR
Unknown shape, 0.1 m
Radar Cross Section
Medium (>0.1 m² and <1 m²)

Expand to show TLE details & history
Last TLE update: 15 hours ago

TLE from 15 hours ago
0 SL-16 DEB
1 22612U 93016W   26255.01474389  .00003801  00000-0  11066-2 0  9996
2 22612  70.9713  88.6281 0058599 113.5300  44.2288 14.43833067719637
Epoch: 2026-09-12T00:21Z
TLE epoch observation values (Epoch: 2026-09-12T00:21:13.872Z)
Latitude
20.54146°
Longitude
-95.09469°
Altitude
718.123 km
Speed
7.514 km/s
True Right ascension
17h 24m 58s
True Declination
20° 25' 41"
Sunlit
Object was in daylight at epoch
Visualization orbit readout
Latitude
Unknown
Longitude
Unknown
Altitude
Unknown
Speed
Unknown
Apparent Right ascension
Unknown
Apparent Declination
Unknown
Sunlit
N/A
Visualization observer readout
Local Sidereal Time
07:40:25
Azimuth
Unknown
Elevation
Unknown
Doppler factor
Unknown
Orbital elements
Apogee altitude
785.495 km
Perigee altitude
702.028 km
Semi-major axis
7,121.898 km
Eccentricity
0.00586
Inclination
70.9713°
RAAN
88.6281°
Arg. of periapsis
113.53°
True anomaly
44.69965°
Mean anomaly
44.2288°
Eccentric anomaly
44.46398°
Mean motion
3.61118 °/min
Orbital period
99.69 mins
BSTAR
0.0011066
Loading maneuver chart data...
Computing Atmospheric mass density...
Loading historical data...
Loading historical data...
Loading historical data...
Loading historical data...
Loading historical data...
Loading historical data...
Loading historical data...

Documentation

Showing up to 5 results
|